DW8065 Weather Reports


time (UTC)temp
F
wind
direction
speed
knots
gust
knots
rain 1hr
in
rain 24hr
in
rain mn
in
humidity
%
barometer
mb
20260507000009 50 318 7.0 11.3 0.01 0.37 0.37 91 1005.7
20260506234505 51 301 1.7 7.8 0.02 0.37 0.37 91 1005.2
20260506233005 51 296 0.0 8.7 0.02 0.37 0.37 91 1005.2
20260506231503 52 298 2.6 9.6 0.02 0.37 0.37 91 1004.8
20260506230106 53 307 5.2 11.3 0.01 0.36 0.36 90 1004.6
20260506224600 55 306 3.5 10.4 0.00 0.35 0.35 90 1004.3
20260506223059 56 278 1.7 5.2 0.00 0.35 0.35 91 1004.1
20260506221601 56 283 2.6 8.7 0.01 0.35 0.35 91 1003.9
20260506220100 58 306 4.3 11.3 0.05 0.35 0.35 91 1003.8
20260506214601 59 308 7.8 10.4 0.09 0.43 0.35 92 1003.5
20260506213056 58 299 3.5 6.1 0.09 0.43 0.35 92 1003.4
20260506211608 59 285 0.0 0.0 0.09 0.42 0.34 92 1003.3
20260506210054 58 285 0.0 0.9 0.04 0.37 0.28 92 1003.4
20260506204553 59 290 0.9 2.6 0.01 0.36 0.26 90 1003.4
20260506203052 60 94 0.0 0.9 0.02 0.36 0.26 91 1003.4
20260506201551 60 91 0.0 0.9 0.02 0.35 0.25 91 1003.5
20260506200051 61 91 0.0 0.0 0.03 0.35 0.25 91 1003.6
20260506194550 60 91 0.0 1.7 0.04 0.35 0.25 91 1003.8
20260506193046 61 137 0.0 0.0 0.05 0.34 0.24 91 1003.9
20260506191543 60 100 0.0 0.0 0.06 0.33 0.23 91 1004.1
20260506190041 60 128 0.0 0.9 0.08 0.32 0.22 91 1004.3
20260506184540 60 139 0.0 0.9 0.10 0.31 0.21 91 1004.5
20260506183039 60 104 0.0 2.6 0.11 0.28 0.19 91 1004.5
20260506181537 60 164 0.0 3.5 0.11 0.27 0.17 91 1004.6
20260506180040 60 110 0.0 6.1 0.09 0.24 0.14 91 1004.7
20260506174533 60 138 0.0 1.7 0.07 0.21 0.11 91 1005.0
20260506173038 60 136 0.0 0.9 0.05 0.18 0.08 91 1005.2
20260506171530 60 278 0.0 0.0 0.04 0.16 0.06 92 1005.2
20260506170027 58 278 0.0 1.7 0.03 0.15 0.05 91 1005.4
20260506164525 57 291 0.0 1.7 0.03 0.14 0.04 90 1005.6
20260506163027 58 290 0.0 0.9 0.03 0.13 0.03 89 1005.7
20260506161527 59 323 0.0 0.0 0.02 0.12 0.02 89 1005.7
20260506160021 59 323 0.0 0.0 0.02 0.12 0.02 88 1006.1
20260506154519 58 323 0.0 0.0 0.01 0.11 0.01 88 1006.5
20260506153016 58 323 0.0 0.0 0.00 0.10 0.00 87 1006.9
20260506151516 58 323 0.0 1.7 0.00 0.10 0.00 87 1007.1
20260506150017 58 311 4.3 5.2 0.00 0.10 0.00 85 1006.9
20260506144514 58 296 2.6 2.6 0.00 0.10 0.00 85 1006.8
20260506143015 58 300 0.9 1.7 0.00 0.10 0.00 85 1006.9
20260506141513 58 293 0.0 0.9 0.00 0.10 0.00 84 1007.0
20260506140013 58 293 0.9 2.6 0.00 0.10 0.00 85 1007.0
20260506134510 57 319 0.0 0.9 0.00 0.10 0.00 88 1006.9
20260506133013 57 5 0.0 0.0 0.00 0.10 0.00 88 1007.0
20260506131513 57 357 0.9 1.7 0.00 0.10 0.00 87 1007.3
20260506130013 56 294 0.0 0.9 0.00 0.10 0.00 91 1007.8
20260506124507 55 282 1.7 6.1 0.00 0.10 0.00 91 1007.4
20260506123007 55 300 1.7 2.6 0.00 0.10 0.00 91 1007.5
20260506121505 54 322 1.7 3.5 0.00 0.10 0.00 93 1007.4
20260506120005 55 257 0.0 0.9 0.00 0.10 0.00 93 1007.5
20260506114503 54 288 0.0 0.0 0.00 0.10 0.00 93 1007.5
20260506113005 53 288 0.0 0.9 0.00 0.10 0.00 93 1007.7
20260506111502 53 253 0.0 0.0 0.00 0.10 0.00 93 1007.6
20260506110002 52 255 0.0 0.0 0.00 0.10 0.00 93 1007.8
20260506104602 52 255 0.0 0.0 0.00 0.10 0.00 93 1007.7
20260506103101 51 193 0.0 0.0 0.00 0.10 0.00 93 1007.8
20260506101600 51 193 0.0 0.0 0.00 0.10 0.00 93 1007.8
20260506100059 51 193 0.0 0.0 0.00 0.10 0.00 93 1007.6
20260506094558 51 193 0.0 0.0 0.00 0.10 0.00 93 1007.6
20260506093055 52 193 0.0 0.0 0.00 0.10 0.00 93 1007.6
20260506091554 52 193 0.0 0.0 0.00 0.10 0.00 93 1007.6
20260506090152 53 193 0.0 0.0 0.00 0.10 0.00 93 1007.7
20260506084549 53 193 0.0 0.0 0.00 0.10 0.00 93 1007.8
20260506081550 54 150 0.0 0.0 0.00 0.10 0.00 92 1007.9
20260506073041 55 150 0.0 0.0 0.00 0.10 0.00 91 1007.9
20260506071548 56 150 0.0 0.0 0.00 0.10 0.00 91 1008.0
20260506061535 58 279 0.9 4.3 0.00 0.10 0.00 92 1007.7
20260506044535 56 284 0.0 0.9 0.00 0.10 0.00 92 1007.7
20260506043025 56 291 2.6 4.3 0.00 0.10 0.00 92 1007.4
20260506041525 57 288 0.0 0.0 0.00 0.10 0.00 92 1007.6
20260506040021 57 288 0.0 0.9 0.00 0.10 0.00 92 1007.6
20260506034520 57 288 0.0 1.7 0.00 0.10 0.10 92 1007.5
20260506033019 57 293 0.0 0.9 0.00 0.10 0.10 92 1007.3
20260506031523 57 293 0.0 1.7 0.00 0.10 0.10 92 1007.5
20260506030020 56 293 0.0 1.7 0.00 0.10 0.10 92 1007.5
20260506024521 56 289 0.0 1.7 0.00 0.10 0.10 92 1007.6
20260506023017 57 289 0.0 0.0 0.00 0.10 0.10 92 1007.3
20260506021516 57 289 0.0 0.9 0.00 0.10 0.10 92 1007.4
20260506020016 57 289 0.0 0.0 0.00 0.10 0.10 92 1007.2
20260506014515 56 269 0.0 0.0 0.00 0.10 0.10 92 1007.1
20260506013018 57 176 0.0 0.0 0.00 0.10 0.10 92 1007.0
20260506011517 57 162 0.0 0.0 0.00 0.10 0.10 92 1006.9
20260506010014 58 162 0.0 0.0 0.00 0.10 0.10 91 1006.9
20260506004513 58 161 0.0 1.7 0.00 0.10 0.10 91 1006.7
20260506003013 59 241 0.0 0.0 0.00 0.10 0.10 91 1006.7
20260506001515 59 244 0.0 0.9 0.00 0.10 0.10 90 1006.6